Location: Unspecified
(0.0000°N, 0.0000°E)
Time: 18:00:20
(UTC+00:00)

STARLINK 1017 - Pass Details

Date: 18 January 2020
Orbit: 347 x 353 km, 53.0° (Epoch: 18 January)

Event Time Altitude Azimuth Distance (km) Brightness Sun altitude
Exits shadow 04:16:41 - 177° (S) 1,852 6.6 -26.4°
Reaches altitude 10° 04:18:47 10° 149° (SSE) 1,298 6.2 -25.9°
Maximum altitude 04:19:59 12° 125° (SE) 1,190 6.3 -25.6°
Drops below altitude 10° 04:21:11 10° 100° (E) 1,295 6.5 -25.4°
Sets 04:24:07 0° 66° (ENE) 2,133 7.3 -24.7°
